Terug naar catalogus

STARLINK-34078

ActiefCommunicatieVLEO
NORAD 64012·PAYLOAD·🇺🇸 United States

Gelanceerd May 14, 2025 vanaf Cape Canaveral Space Force Station

Loading…

Volgende Passages (komende 24 uur)

TLE

VersSource: CelesTrak SupGP

Epoch: Sep 14, 2026, 22:30 UTC

1 64012C 25101U   26257.93798611 -.00014252  00000+0 -51623-3 0  2570
2 64012  43.0038   8.9128 0001468 271.9548   9.5505 15.27583954    10

Volg STARLINK-34078 in realtime met AllMySat

Download on the App Store